Probability
0 0 0 0 0 0 0 0 0 0 0 0 0 0 0 0 0 0 0 0 0 0 0 0 0 0 0 0 0 0 0 0 0 0 0 0 0 0
0 0 0 0 0 0 0 0 0 0 0 0 0 0 0 0 0 0 0 0 0 0 0 0 0 0 0 0 0 0 0 0 0 0 0 0 0 0
0 0 0 0 0 0 0 0 0 0 0 0 0 0 0 0 0 0 0 0 0 0 0 0 0 0 0 0 0 0 0 0 0 0 0 0 0 0
0 0 0 0 0 0 0 0 0 0 0 0 0 0 0 0 0 0 0 0 0 0 0 0 0 0 0 0 0 0 0 0 0 0 0 0 0 0
0 0 0 0 0 0 0 0 0 0 0 0 0 0 0 0 0 0 0 0 0 0 0 0 0 0 0 0 0 0 0 0 0 0 0 0 0 0
0 0 0 0 0 0 0 0 0 0 0 0 0 0 0 0 0 0 0 0 0 0 0 0 0 0 0 0 0 0 0 0 0 0 0 0 0 0
0 0 0 0 0 0 0 0 0 0 0 0 0 0 0 0 0 0 0 0 0 0 0 0 0 0 0 0 0 0 0 0 0 0 0 0 0 0
0 0 0 0 0 0 0 0 0 0 0 0 0 0 0 0 0 0 0 0 0 0 0 0 0 0 0 0 0 0 0 0 0 0 0 0 0 0
0 0 0 0 0 0 0 0 0 0 0 0 0 0 0 0 0 0 0 0 0 0 0 0 0 0 0 0 0 0 0 0 0 0 0 0 0 0
0 0 0 0 0 0 0 0 0 0 0 0 0 0 0 0 0 0 0 0 0 0 0 0 0 0 0 0 0 0 0 0 0 0 0 0 0 0
0 0 0 0 0 0 0 0 0 0 0 0 0 0 0 0 0 0 0 0 0 0 0 0 0 0 0 0 0 0 0 0 0 0 0 0 0 0
0 0 0 0 0 0 0 0 0 0 0 0 0 0 0 0 0 0 0 0 0 0 0 0 0 0 0 0 0 0 0 0 0 0 0 0 0 0
0 0 0 0 0 0 0 0 0 0 0 0 0 0 0 0 0 0 0 0 0 0 0 0 0 0 0 0 0 0 0 0 0 0 0 0 0 0
0 0 0 0 0 0 0 0 0 0 0 0 0 0 0 0 0 0 0 0 0 0 0 0 0 0 0 0 0 0 0 0 0 0 0 0 0 0
0 0 0 0 0 0 0 0 0 0 0 0 0 0 0 0 0 0 0 0 0 0 0 0 0 0 0 0 0 0 0 0 0 0 0 0 0 0
0 0 0 0 0 0 0 0 0 0 0 0 0 0 0 0 0 0 0 0 0 0 0 0 0 0 0 0 0 0 0 0 0 0 0 0 0 0
0 0 0 0 0 0 0 0 0 0 0 0 0 0 0 0 0 0 0 0 0 0 0 0 0 0 0 0 0 0 0 0 0 0 0 0 0 0
0 0 0 0 0 0 0 0 0 0 0 0 0 0 0 0 0 0 0 0 0 0 0 0 0 0 0 0 0 0 0 0 0 0 0 0 0 0
0 0 0 0 0 0 0 0 0 0 0 0 0 0 0 0 0 0 0 0 0 0 0 0 0 0 0 0 0 0 0 0 0 0 0 0 0 0
0 0 0 0 0 0 0 0 0 0 0 0 0 0 0 0 0 0 0 0 0 0 0 0 0 0 0 0 0 0 0 0 0 0 0 0 0 0
0 0 0 0 0 0 0 0 0 0 0 0 0 0 0 0 0 0 0 0 0 0 0 0 0 0 0 0 0 0 0 0 0 0 0 0 0 0
0 0 0 0 0 0 0 0 0 0 0 0 0 0 0 0 0 0 0 0 0 0 0 0 0 0 0 0 0 0 0 0 0 0 0 0 0 0
0 0 0 0 0 0 0 0 0 0 0 0 0 0 0 0 0 0 0 0 0 0 0 0 0 0 0 0 0 0 0 0 0 0 0 0 0 0
Wind_Speed
4 4 2 2 2 2 2 3 4 3 3 2 1 1 1 1 1 0 1 1 1 2 3 3 4 3 3 3 3 4 4 4 5 5 6 6 7 8
3 4 3 2 2 2 2 2 2 3 2 2 2 1 1 1 1 1 1 2 2 2 2 2 3 4 3 3 3 4 4 5 5 6 6 7 7 8
4 4 3 3 2 2 2 2 2 2 2 1 1 1 1 2 1 1 1 1 2 3 3 3 3 3 4 4 4 4 5 5 6 6 7 7 8 8
5 4 4 3 3 3 2 2 2 2 3 2 1 1 1 2 1 1 1 2 2 4 4 4 4 4 4 5 5 5 5 6 6 6 7 7 8 8
5 5 4 4 3 3 3 3 2 2 2 2 1 1 1 1 0 1 2 2 3 3 4 4 5 5 5 5 5 6 6 6 6 6 7 7 8 9
4 4 4 4 4 4 4 4 3 3 2 2 1 1 1 1 1 1 2 2 3 2 3 3 4 5 6 6 6 6 6 6 7 7 7 8 9 9
3 3 3 4 5 4 4 4 4 3 3 2 2 1 1 1 2 1 2 2 3 2 2 2 2 3 4 5 6 6 7 7 7 8 8 9 9 10
4 3 3 4 4 4 4 5 5 5 4 3 3 3 3 3 2 1 1 1 3 2 1 3 2 3 3 3 6 7 7 7 8 8 8 9 9 10
4 3 2 2 3 3 3 3 3 4 5 4 4 5 4 4 3 2 2 3 3 2 1 3 2 3 3 4 7 7 8 8 8 8 9 10 10 10
4 4 4 3 3 4 3 2 2 2 4 3 4 4 4 3 4 4 3 2 2 2 1 3 2 3 4 4 7 7 7 8 8 9 10 10 10 10
3 4 4 4 5 5 3 3 2 1 1 2 3 2 3 4 3 2 1 1 2 3 1 2 2 3 3 4 4 6 7 8 9 10 10 10 10 10
3 3 4 4 5 5 4 4 3 2 1 1 0 1 1 2 3 3 3 2 2 3 2 2 2 1 3 3 3 3 4 7 9 10 11 11 11 6
3 2 3 5 5 5 3 3 4 3 2 2 1 1 0 0 1 2 2 3 3 4 2 2 2 2 3 4 3 3 3 3 4 6 8 10 11 8
3 2 3 4 4 4 3 3 3 2 1 1 1 1 1 1 1 1 2 2 3 4 3 3 2 3 3 4 5 3 3 3 4 4 4 8 9 10
3 3 3 3 2 2 3 3 2 2 2 2 2 2 2 2 1 1 1 1 2 2 2 2 3 3 3 4 5 4 4 4 3 4 4 5 5 5
3 3 4 3 1 1 1 1 1 1 2 2 2 1 1 1 1 1 1 1 1 2 2 2 3 4 4 5 5 6 4 4 4 4 5 5 5 4
3 2 2 1 1 1 1 1 1 1 0 0 1 1 1 1 1 0 0 1 1 2 3 2 3 3 5 5 5 6 5 5 5 4 5 6 6 5
4 2 2 1 1 1 1 0 1 1 0 0 0 0 1 1 1 0 1 1 2 3 3 3 3 3 3 4 6 6 5 5 5 4 4 6 8 6
3 2 2 1 1 1 1 0 0 0 0 0 0 0 0 0 1 1 1 2 2 3 3 2 2 2 4 6 4 5 4 5 5 5 5 5 7 7
2 2 1 1 1 1 1 0 0 0 1 0 0 0 0 1 1 1 2 2 3 3 3 3 2 3 5 6 6 5 6 5 5 6 6 5 6 8
2 2 1 1 1 1 1 0 0 0 0 0 0 0 1 1 1 2 2 3 3 3 4 4 4 6 3 2 5 5 4 6 7 6 6 6 6 6
2 1 1 1 1 1 1 1 0 0 0 0 0 1 1 1 2 2 2 2 3 3 4 4 4 3 2 3 6 7 7 6 6 9 9 8 5 6
1 1 1 1 1 1 1 1 1 0 0 0 1 1 1 1 2 2 2 3 3 4 4 4 3 3 3 4 5 6 7 7 5 6 6 9 12 14
Wind_Direction
163 157 150 154 144 138 139 149 152 174 223 232 240 254 260 245 263 251 279 307 342 334 340 345 343 336 330 327 330 334 337 336 332 329 328 329 327 325
159 157 155 155 145 136 144 145 145 155 193 220 226 238 239 246 247 247 257 290 289 299 312 319 327 323 318 319 325 326 327 327 324 321 319 318 317 318
159 162 169 160 155 154 147 144 139 137 166 235 239 240 215 226 260 267 275 275 275 280 286 295 299 304 309 310 309 312 314 314 314 313 312 311 311 312
170 166 172 164 160 159 159 166 169 164 159 187 231 236 241 235 232 252 283 289 279 280 280 288 288 291 297 300 298 300 302 304 305 306 306 307 309 311
172 174 176 166 173 172 173 171 169 160 146 160 200 224 253 260 271 285 281 282 284 283 279 287 291 292 295 297 295 294 296 298 299 299 299 302 304 304
173 176 177 180 183 181 179 178 167 157 146 148 171 210 234 254 192 251 285 281 284 291 283 292 300 302 297 296 296 295 296 296 297 298 298 299 300 300
169 173 178 183 184 182 178 179 171 169 166 172 185 201 217 214 226 226 258 288 287 272 284 284 291 290 292 294 295 293 293 293 296 298 299 298 298 297
176 177 178 183 181 176 179 178 176 178 186 192 204 213 227 224 214 213 230 273 280 272 259 281 269 273 276 271 285 291 292 292 294 298 298 299 299 298
184 182 182 184 169 175 177 174 190 202 202 195 205 217 217 211 196 214 225 233 249 266 263 274 274 272 277 284 289 291 292 293 296 299 300 299 299 298
187 188 189 185 183 175 168 176 200 220 219 212 211 221 221 206 199 208 214 234 271 276 221 260 277 280 295 290 288 291 294 296 299 301 301 301 300 300
186 190 186 186 183 172 168 180 202 247 254 220 223 227 224 213 193 159 165 195 267 269 226 236 271 290 287 279 286 297 300 297 300 302 302 304 304 303
177 189 189 189 186 179 181 183 203 225 201 195 236 315 264 226 214 196 188 200 237 262 234 218 257 305 297 278 284 295 293 295 298 302 303 304 304 298
181 191 194 193 197 201 204 202 212 208 187 182 189 209 242 216 227 220 210 204 214 239 232 204 238 248 255 289 294 278 270 282 290 292 297 300 301 299
183 187 190 194 205 205 208 210 207 190 166 171 187 212 224 241 246 231 225 231 231 237 231 202 220 232 255 276 283 288 278 271 275 279 279 295 296 296
167 168 170 173 180 186 188 193 184 173 177 195 213 227 224 216 209 230 280 262 261 259 261 237 229 238 239 258 276 284 293 283 263 271 281 283 277 280
138 143 139 135 118 105 126 155 161 183 196 207 210 209 187 185 217 231 250 279 298 295 277 256 246 241 253 260 264 274 271 276 285 282 283 280 274 264
128 112 110 115 118 102 84 89 105 111 102 129 175 192 196 205 247 262 244 271 260 279 295 291 270 258 253 256 265 265 270 273 273 281 288 289 278 268
127 133 138 144 160 158 142 82 59 75 68 95 167 232 211 204 235 261 259 251 266 274 280 288 300 309 298 266 238 258 266 272 280 279 280 285 286 278
125 137 144 155 159 146 141 139 53 24 82 126 155 243 270 243 244 255 259 266 272 278 280 276 273 276 290 292 278 230 254 281 288 284 273 269 278 286
110 130 137 140 138 137 145 137 100 70 59 60 34 340 303 272 259 263 265 268 276 284 287 280 263 255 262 276 286 284 262 262 275 282 286 284 278 283
106 108 111 121 125 138 141 134 130 120 81 64 33 337 305 286 278 275 277 285 291 290 288 286 279 285 276 281 286 287 281 271 272 274 284 291 294 294
103 111 112 120 127 134 138 143 128 98 89 60 309 297 290 279 273 278 281 285 287 285 284 288 294 296 278 273 282 290 296 301 297 290 277 264 270 278
110 109 105 119 132 146 159 160 160 175 220 241 255 270 273 279 282 281 282 285 290 291 293 298 303 300 290 282 283 288 293 300 304 303 291 287 284 281